This is the latest recevied weather packets stored in our database for station/object N0HEQ. If no packets are shown the sender has not sent any weather packets the latest 10 day(s).
| Time | Temp. | Humidity | Pressure | Rain* | Wind** | Luminosity | Snow |
|---|---|---|---|---|---|---|---|
| 1777707088 | 3.89° C | 53% | 1024.8 hPa | 0 mm | - | 0 W/m² | - |
| 1777706786 | 3.33° C | 53% | 1024.7 hPa | 0 mm | - | 0 W/m² | - |
| 1777706484 | 3.33° C | 54% | 1024.7 hPa | 0 mm | - | 0 W/m² | - |
| 1777706181 | 3.89° C | 53% | 1024.7 hPa | 0 mm | - | 0 W/m² | - |
| 1777705879 | 3.89° C | 54% | 1024.7 hPa | 0 mm | - | 0 W/m² | - |
| 1777705577 | 3.89° C | 54% | 1024.7 hPa | 0 mm | - | 0 W/m² | - |
| 1777705275 | 3.89° C | 51% | 1025.1 hPa | 0 mm | - | 0 W/m² | - |
| 1777704973 | 4.44° C | 50% | 1024.9 hPa | 0 mm | - | 0 W/m² | - |
| 1777704670 | 4.44° C | 49% | 1024.8 hPa | 0 mm | - | 0 W/m² | - |
| 1777704369 | 5° C | 49% | 1024.7 hPa | 0 mm | - | 0 W/m² | - |
| 1777704066 | 5° C | 48% | 1024.9 hPa | 0 mm | - | 0 W/m² | - |
| 1777703763 | 5° C | 50% | 1024.8 hPa | 0 mm | - | 0 W/m² | - |
| 1777703461 | 5° C | 51% | 1024.8 hPa | 0 mm | - | 0 W/m² | - |
| 1777703157 | 5° C | 51% | 1024.7 hPa | 0 mm | - | 0 W/m² | - |
| 1777702855 | 5° C | 50% | 1024.7 hPa | 0 mm | - | 0 W/m² | - |
| 1777702553 | 5° C | 49% | 1024.8 hPa | 0 mm | - | 0 W/m² | - |
| 1777702250 | 5.56° C | 48% | 1024.9 hPa | 0 mm | - | 0 W/m² | - |
| 1777701945 | 5.56° C | 48% | 1024.8 hPa | 0 mm | - | 0 W/m² | - |
| 1777701642 | 5.56° C | 48% | 1024.9 hPa | 0 mm | - | 0 W/m² | - |
| 1777701340 | 5.56° C | 48% | 1024.6 hPa | 0 mm | - | 0 W/m² | - |
| 1777701038 | 5.56° C | 49% | 1024.7 hPa | 0 mm | - | 0 W/m² | - |
| 1777700737 | 5.56° C | 47% | 1024.9 hPa | 0 mm | - | 0 W/m² | - |
| 1777700433 | 6.11° C | 47% | 1024.8 hPa | 0 mm | - | 0 W/m² | - |
| 1777700130 | 6.11° C | 48% | 1024.7 hPa | 0 mm | - | 0 W/m² | - |
| 1777699828 | 6.11° C | 46% | 1024.6 hPa | 0 mm | - | 0 W/m² | - |
* Rain latest hour (hover to see other rain measurements)
** Current wind speed in m/s (hover to see current wind gust speed)